Location: Carnoy
(49.9849°N, 2.7558°E)
Time: 06:41:18
(UTC+00:00)

NOSS 3-3 (A) - Pass Details

Date: 24 January 2020
Orbit: 841 x 1372 km, 63.4° (Epoch: 19 February)

Event Time Altitude Azimuth Distance (km) Brightness Sun altitude
Rises 19:52:00 0° 316° (NW) 3,929 7.9 -32.3°
Reaches altitude 10° 19:54:33 10° 316° (NW) 3,040 7.1 -32.7°
Enters shadow 20:01:54 84° 240° (WSW) 1,259 4.4 -33.9°
